sat.trackr.live / text

‹ back to catalog

BESSA

NORAD 68836 · 2026-067CX

PAYLOAD ACTIVE UNKNOWN

§ Identity

Operator
Country
POR
Launch date
2026-03-30
Launch site
AFWTR
Launch vehicle
Mass (kg)
RCS (m²)

External: N2YO · Heavens-Above · Gunter

§ Orbital elements

Epoch: 2026-09-20T03:05:37.329792Z

Period
94.77 min
Inclination
97.4628°
Eccentricity
0.0011859
Mean motion
15.19523576 rev/d
Perigee alt
499.1 km
Apogee alt
515.4 km
Semi-major
6,885.4 km
B*
2.6467e-4
RAAN
220.3712°
Arg perigee
49.9588°
Mean anomaly
310.2685°
Rev number
2,615

§ Raw data

BESSA1 68836U 26067CX  26263.12890428  .00005564  00000+0  26467-3 0  99922 68836  97.4628 220.3712 0011859  49.9588 310.2685 15.19523576 26156

JSON: /api/v1/satellites/68836 · /tle

For live sub-satellite position, see the globe view (requires WebGL).

§ Visibility from observer

Set your observer location to see the next 7 days of passes ≥ 10°. The values pass through the URL so the page stays shareable.

No JS? Fill the form by hand. The geolocation button needs JavaScript.